Location: Bu�n Treun
(12.1333°N, 108.3167°E)
Time: 23:28:36
(UTC+00:00)

Meteor 1-11 - Pass Details

Date: 13 July 2020
Orbit: 842 x 885 km, 81.2° (Epoch: 03 August)

Event Time Altitude Azimuth Distance (km) Brightness Sun altitude
Exits shadow 13:03:45 18° 193° (SSW) 1,939 5.9 -24.5°
Maximum altitude 13:07:55 73° 276° (W) 890 4.3 -25.3°
Drops below altitude 10° 13:13:33 10° 0° (N) 2,487 7.0 -26.5°
Sets 13:16:00 0° 2° (N) 3,431 7.8 -27.0°
